This is the latest recevied weather packets stored in our database for station/object E24QND-2. If no packets are shown the sender has not sent any weather packets the latest 10 day(s).
| Time | Temp. | Humidity | Pressure | Rain* | Wind** | Luminosity | Snow |
|---|---|---|---|---|---|---|---|
| 1777593589 | 26.67° C | 96% | - | - | - | 0 W/m² | - |
| 1777592364 | 26.67° C | 94% | - | - | - | 0 W/m² | - |
| 1777591139 | 26.67° C | 99% | - | - | - | 0 W/m² | - |
| 1777589914 | 26.67° C | 99% | - | - | - | 0 W/m² | - |
| 1777588690 | 26.67° C | 99% | - | - | - | 0 W/m² | - |
| 1777587465 | 26.11° C | 99% | - | - | - | 0 W/m² | - |
| 1777586241 | 25.56° C | 99% | - | - | - | 0 W/m² | - |
| 1777585017 | 26.11° C | 99% | - | - | - | 0 W/m² | - |
| 1777583792 | 26.11° C | 94% | - | - | - | 0 W/m² | - |
| 1777582567 | 27.22° C | 61% | - | - | - | 0 W/m² | - |
| 1777581343 | 27.22° C | 70% | - | - | - | 0 W/m² | - |
| 1777580118 | 27.22° C | 88% | - | - | - | 0 W/m² | - |
| 1777578894 | 27.22° C | 87% | - | - | - | 0 W/m² | - |
| 1777577670 | 27.78° C | 69% | - | - | - | 0 W/m² | - |
| 1777576445 | 27.78° C | 55% | - | - | - | 0 W/m² | - |
| 1777575220 | 27.78° C | 61% | - | - | - | 0 W/m² | - |
| 1777573996 | 27.78° C | 68% | - | - | - | 0 W/m² | - |
| 1777572771 | 28.33° C | 95% | - | - | - | 0 W/m² | - |
| 1777571547 | 28.33° C | 95% | - | - | - | 0 W/m² | - |
| 1777570322 | 28.33° C | 79% | - | - | - | 0 W/m² | - |
| 1777569098 | 28.89° C | 83% | - | - | - | 0 W/m² | - |
| 1777567873 | 28.89° C | 81% | - | - | - | 0 W/m² | - |
| 1777566648 | 29.44° C | 74% | - | - | - | 0 W/m² | - |
| 1777565424 | 29.44° C | 58% | - | - | - | 0 W/m² | - |
| 1777564199 | 29.44° C | 63% | - | - | - | 0 W/m² | - |
* Rain since midnight (hover to see other rain measurements)
** Current wind speed in m/s (hover to see current wind gust speed)